Weather History for Bar Harbor, ME

Change the Weather History Date:

Friday, April 5, 2013

  Actual Average Record
Temperature  
Mean Temperature 40 °F -  
Max Temperature 46 °F 46 °F 61 °F (1958)
Min Temperature 35 °F 31 °F 11 °F (1954)
Degree Days  
Heating Degree Days 24    
Moisture  
Dew Point 34 °F    
Average Humidity 75    
Maximum Humidity 93    
Minimum Humidity 49    
Precipitation  
Precipitation 0.00 in - - ()
Sea Level Pressure  
Sea Level Pressure 29.79 in    
Wind  
Wind Speed 11 mph (SSW)    
Max Wind Speed 23 mph    
Max Gust Speed 28 mph    
Visibility 10 miles    
Events      
Averages and records for this station are not official NWS values.
T = Trace of Precipitation, MM = Missing Value Source: NWS Daily Summary

Daily Weather History Graph

Daily Weather History Graph

Search for Another Location

Airport:

Trip Planner

Search our weather history database for the weather conditions in past years. The results will help you decide how hot, cold, wet, or windy it might be!

Date:

Astronomy

Apr. 05, 2013 Rise Set
Actual Time 6:06 AM EDT 7:06 PM EDT
Civil Twilight 5:37 AM EDT 7:35 PM EDT
Nautical Twilight 5:01 AM EDT 8:11 PM EDT
Astronomical Twilight 4:24 AM EDT 8:48 PM EDT
Moon 3:22 AM EDT (4/5) 2:16 PM EDT (4/5)
Length of Visible Light 13h 58m
Length of Day
12h 59m
Waning Crescent, 24% of the Moon is Illuminated
Apr 5
Waning Crescent
Apr 10
New
Apr 18
First Quarter
Apr 25
Full
May 2
Last Quarter

Hourly Weather History & Observations

Time (EDT) Temp. Windchill Dew Point Humidity Pressure Visibility Wind Dir Wind Speed Gust Speed Precip Events Conditions
12:15 AM 39.2 °F 33.0 °F 35.6 °F 87% 29.96 in 10.0 mi SSW 9.2 mph - N/A   Clear
12:36 AM 39.2 °F 33.0 °F 33.8 °F 81% 29.95 in 10.0 mi SSW 9.2 mph - N/A   Clear
12:55 AM 39.2 °F 33.6 °F 33.8 °F 81% 29.95 in 10.0 mi SSW 8.1 mph - N/A   Clear
1:15 AM 39.2 °F 33.6 °F 33.8 °F 81% 29.94 in 10.0 mi SSW 8.1 mph - N/A   Clear
1:35 AM 39.2 °F 34.2 °F 33.8 °F 81% 29.94 in 10.0 mi SSW 6.9 mph - N/A   Clear
1:55 AM 39.2 °F 35.9 °F 33.8 °F 81% 29.93 in 10.0 mi SSW 4.6 mph - N/A   Clear
2:15 AM 39.2 °F 33.0 °F 33.8 °F 81% 29.93 in 10.0 mi SSW 9.2 mph - N/A   Clear
2:35 AM 39.2 °F 33.0 °F 33.8 °F 81% 29.92 in 10.0 mi SSW 9.2 mph - N/A   Clear
2:55 AM 37.4 °F 32.8 °F 33.8 °F 87% 29.92 in 10.0 mi SSW 5.8 mph - N/A   Clear
3:15 AM 37.4 °F 32.8 °F 33.8 °F 87% 29.92 in 10.0 mi South 5.8 mph - N/A   Clear
3:35 AM 35.6 °F 30.7 °F 33.8 °F 93% 29.91 in 10.0 mi SE 5.8 mph - N/A   Clear
3:55 AM 37.4 °F 31.4 °F 33.8 °F 87% 29.91 in 10.0 mi South 8.1 mph - N/A   Clear
4:15 AM 37.4 °F 30.8 °F 33.8 °F 87% 29.91 in 10.0 mi SSW 9.2 mph - N/A   Clear
4:35 AM 37.4 °F 30.3 °F 33.8 °F 87% 29.90 in 10.0 mi SSW 10.4 mph - N/A   Clear
4:55 AM 37.4 °F 30.3 °F 33.8 °F 87% 29.90 in 10.0 mi SSW 10.4 mph - N/A   Clear
5:15 AM 39.2 °F 31.6 °F 33.8 °F 81% 29.90 in 10.0 mi SSW 12.7 mph - N/A   Clear
5:35 AM 39.2 °F 32.0 °F 33.8 °F 81% 29.89 in 10.0 mi SSW 11.5 mph 17.3 mph N/A   Clear
5:55 AM 39.2 °F 32.0 °F 33.8 °F 81% 29.88 in 10.0 mi SSW 11.5 mph - N/A   Clear
6:15 AM 39.2 °F 31.6 °F 35.6 °F 87% 29.88 in 10.0 mi SSW 12.7 mph - N/A   Clear
6:35 AM 39.2 °F 31.6 °F 35.6 °F 87% 29.88 in 10.0 mi SSW 12.7 mph - N/A   Clear
6:55 AM 39.2 °F 31.6 °F 35.6 °F 87% 29.87 in 10.0 mi SSW 12.7 mph - N/A   Clear
7:15 AM 39.2 °F 31.6 °F 35.6 °F 87% 29.87 in 10.0 mi SSW 12.7 mph - N/A   Clear
7:35 AM 39.2 °F 32.0 °F 35.6 °F 87% 29.86 in 10.0 mi SSW 11.5 mph - N/A   Clear
7:55 AM 39.2 °F 30.8 °F 35.6 °F 87% 29.86 in 10.0 mi SSW 15.0 mph - N/A   Clear
8:15 AM 39.2 °F 30.8 °F 35.6 °F 87% 29.86 in 10.0 mi South 15.0 mph - N/A   Clear
8:35 AM 41.0 °F 33.1 °F 35.6 °F 81% 29.86 in 10.0 mi SSW 15.0 mph 19.6 mph N/A   Clear
8:55 AM 41.0 °F 33.9 °F 35.6 °F 81% 29.85 in 10.0 mi SSW 12.7 mph 17.3 mph N/A   Clear
9:15 AM 41.0 °F 32.8 °F 35.6 °F 81% 29.84 in 10.0 mi SSW 16.1 mph - N/A   Clear
9:35 AM 42.8 °F 35.4 °F 35.6 °F 76% 29.83 in 10.0 mi SSW 15.0 mph - N/A   Clear
9:55 AM 42.8 °F 34.5 °F 35.6 °F 76% 29.83 in 10.0 mi South 18.4 mph 23.0 mph N/A   Clear
10:15 AM 42.8 °F 34.5 °F 35.6 °F 76% 29.82 in 10.0 mi SSW 18.4 mph - N/A   Clear
10:35 AM 42.8 °F 35.4 °F 35.6 °F 76% 29.82 in 10.0 mi SSW 15.0 mph 23.0 mph N/A   Clear
10:55 AM 42.8 °F 37.5 °F 35.6 °F 76% 29.81 in 10.0 mi South 9.2 mph - N/A   Clear
11:15 AM 44.6 °F 36.6 °F 35.6 °F 71% 29.81 in 10.0 mi South 19.6 mph - N/A   Clear
11:35 AM 44.6 °F 36.1 °F 35.6 °F 71% 29.80 in 10.0 mi South 21.9 mph 25.3 mph N/A   Clear
11:55 AM 44.6 °F 35.9 °F 35.6 °F 71% 29.78 in 10.0 mi South 23.0 mph - N/A   Clear
12:35 PM 46.4 °F 38.7 °F 35.6 °F 66% 29.77 in 10.0 mi South 20.7 mph 25.3 mph N/A   Clear
12:55 PM 44.6 °F 36.4 °F 33.8 °F 66% 29.76 in 10.0 mi SSW 20.7 mph 27.6 mph N/A   Clear
1:15 PM 44.6 °F 36.1 °F 33.8 °F 66% 29.75 in 10.0 mi South 21.9 mph 27.6 mph N/A   Clear
1:35 PM 46.4 °F 38.7 °F 33.8 °F 62% 29.73 in 10.0 mi SSW 20.7 mph 27.6 mph N/A   Clear
1:55 PM 44.6 °F 36.4 °F 33.8 °F 66% 29.72 in 10.0 mi South 20.7 mph 25.3 mph N/A   Clear
2:15 PM 44.6 °F 35.9 °F 33.8 °F 66% 29.72 in 10.0 mi South 23.0 mph - N/A   Clear
2:35 PM 44.6 °F 36.6 °F 35.6 °F 71% 29.71 in 10.0 mi South 19.6 mph 24.2 mph N/A   Clear
2:55 PM 44.6 °F 36.4 °F 33.8 °F 66% 29.69 in 10.0 mi South 20.7 mph 25.3 mph N/A   Clear
3:15 PM 44.6 °F 37.2 °F 33.8 °F 66% 29.68 in 10.0 mi SSW 17.3 mph - N/A   Clear
3:35 PM 44.6 °F 36.9 °F 35.6 °F 71% 29.68 in 10.0 mi South 18.4 mph 21.9 mph N/A   Clear
3:55 PM 46.4 °F 39.5 °F 35.6 °F 66% 29.67 in 10.0 mi South 17.3 mph 21.9 mph N/A   Clear
4:16 PM 46.4 °F 41.1 °F 35.6 °F 66% 29.66 in 10.0 mi SSW 11.5 mph 18.4 mph N/A   Clear
4:35 PM 46.4 °F 40.7 °F 33.8 °F 62% 29.65 in 10.0 mi SSW 12.7 mph - N/A   Clear
4:55 PM 44.6 °F 37.4 °F 35.6 °F 71% 29.64 in 10.0 mi South 16.1 mph 19.6 mph N/A   Clear
5:15 PM 44.6 °F 38.4 °F 35.6 °F 71% 29.65 in 10.0 mi SSW 12.7 mph 19.6 mph N/A   Clear
5:35 PM 42.8 °F 36.6 °F 35.6 °F 76% 29.65 in 10.0 mi SSW 11.5 mph - N/A   Partly Cloudy
5:55 PM 42.8 °F 37.0 °F 35.6 °F 76% 29.65 in 10.0 mi SSW 10.4 mph - N/A   Mostly Cloudy
6:35 PM 42.8 °F 38.6 °F 35.6 °F 76% 29.65 in 10.0 mi SSW 6.9 mph - N/A   Overcast
6:55 PM 41.0 °F 36.4 °F 35.6 °F 81% 29.65 in 10.0 mi SSW 6.9 mph - N/A   Overcast
7:15 PM 41.0 °F 39.0 °F 37.4 °F 87% 29.65 in 10.0 mi SW 3.5 mph - N/A   Overcast
7:35 PM 41.0 °F 38.0 °F 35.6 °F 81% 29.66 in 10.0 mi WSW 4.6 mph - N/A   Overcast
7:55 PM 42.8 °F 39.3 °F 35.6 °F 76% 29.67 in 10.0 mi West 5.8 mph - N/A   Overcast
8:15 PM 42.8 °F 40.1 °F 35.6 °F 76% 29.69 in 10.0 mi WNW 4.6 mph - N/A   Overcast
8:35 PM 42.8 °F 40.1 °F 30.2 °F 61% 29.69 in 10.0 mi NW 4.6 mph - N/A   Overcast
8:55 PM 44.6 °F 40.7 °F 26.6 °F 49% 29.69 in 10.0 mi NW 6.9 mph - N/A   Overcast
9:15 PM 44.6 °F 39.2 °F 26.6 °F 49% 29.70 in 10.0 mi NNW 10.4 mph 16.1 mph N/A   Overcast
9:35 PM 42.8 °F 37.5 °F 26.6 °F 53% 29.71 in 10.0 mi NNW 9.2 mph 19.6 mph N/A   Overcast
9:55 PM 42.8 °F 37.0 °F 26.6 °F 53% 29.71 in 10.0 mi NNW 10.4 mph 17.3 mph N/A   Overcast
10:15 PM 41.0 °F 34.3 °F 28.4 °F 61% 29.72 in 10.0 mi NNW 11.5 mph 20.7 mph N/A   Overcast
10:55 PM 39.2 °F 32.5 °F 26.6 °F 61% 29.72 in 10.0 mi NNW 10.4 mph 20.7 mph N/A   Clear
11:15 PM 37.4 °F 30.3 °F 28.4 °F 70% 29.72 in 10.0 mi NNW 10.4 mph 20.7 mph N/A   Clear
11:35 PM 37.4 °F 29.3 °F 28.4 °F 70% 29.73 in 10.0 mi NW 12.7 mph 19.6 mph N/A   Clear
11:55 PM 37.4 °F 29.8 °F 24.8 °F 60% 29.73 in 10.0 mi NW 11.5 mph 18.4 mph N/A   Clear